Location: Baggettsville
(36.4767°N, 86.7303°W)
Time: 09:19:14
(UTC+00:00)

Cosmos 1340 - Pass Details

Date: 29 October 2020
Orbit: 501 x 504 km, 81.2° (Epoch: 04 December)

Event Time Altitude Azimuth Distance (km) Brightness Sun altitude
Rises 23:42:26 0° 353° (N) 2,612 6.3 -10.5°
Reaches altitude 10° 23:44:34 10° 356° (N) 1,723 5.3 -10.9°
Maximum altitude 23:48:20 71° 80° (E) 536 2.5 -11.7°
Drops below altitude 10° 23:52:05 10° 166° (SSE) 1,710 5.3 -12.4°
Sets 23:54:12 0° 168° (SSE) 2,590 6.2 -12.9°
